Wind_Speed
43 44 45 48 50 49 50 48 49 50 51 54 57 60 57 62 67 74 81 85 90 97 98 96 90 84 75 64 62 66 67 64 62 59 57 57 53 53
48 46 46 49 49 51 49 49 52 52 54 55 59 57 59 64 69 77 81 87 93 96 96 88 88 78 67 63 66 68 67 63 60 53 50 52 49 48
48 48 46 47 45 52 51 51 52 53 54 56 58 57 61 66 75 78 83 87 93 96 87 87 83 72 65 67 70 66 62 56 52 52 46 44 44 43
50 50 51 47 48 49 52 52 52 54 54 56 55 58 63 70 75 78 81 86 89 90 85 85 72 68 70 71 68 60 48 48 49 45 40 36 40 41
53 51 53 53 52 52 53 52 52 55 55 54 55 59 67 71 74 78 80 84 85 84 81 73 67 69 69 65 49 41 39 40 39 34 32 30 35 37
51 48 46 55 54 56 53 51 53 55 55 55 56 64 68 72 73 75 78 80 77 82 75 66 64 64 66 50 36 36 34 34 32 26 18 19 28 33
54 51 56 60 52 54 49 50 54 54 52 53 58 65 68 69 70 75 80 78 78 80 64 62 58 63 54 43 37 38 31 29 25 20 12 14 24 28
58 52 54 48 50 46 50 52 54 50 50 55 62 65 68 68 70 75 78 76 77 78 54 58 52 53 47 42 38 34 32 30 25 19 14 12 17 22
59 56 59 50 47 49 51 51 51 49 51 56 62 65 67 68 71 74 74 74 76 71 50 52 47 47 46 45 40 40 34 30 27 23 18 16 16 21
57 59 59 55 49 46 53 49 48 48 52 59 62 66 66 67 69 69 68 71 73 60 51 47 46 46 44 43 40 35 31 25 22 19 16 18 20 22
62 65 59 58 47 47 48 44 43 48 55 58 61 64 63 63 65 62 64 65 68 53 47 46 41 39 44 40 36 35 30 23 16 11 12 15 20 24
57 57 57 52 44 43 41 40 45 49 55 57 61 61 61 61 57 59 62 63 64 48 44 44 36 33 34 35 34 34 28 26 19 13 6 14 20 26
57 57 55 46 42 40 38 42 45 49 53 56 56 57 57 57 54 56 58 60 58 46 44 43 32 33 34 32 35 33 28 23 16 10 8 15 21 32
58 58 52 42 39 39 40 43 43 49 51 52 53 54 54 50 49 51 53 56 54 44 42 41 30 29 31 31 31 30 29 15 10 8 5 16 24 46
62 56 43 39 40 41 41 41 44 45 48 50 51 50 52 49 44 48 50 53 51 39 40 40 31 26 28 30 31 31 27 17 11 7 11 16 25 37
60 45 40 40 42 40 41 39 40 45 46 47 47 47 48 44 41 43 45 49 48 39 37 38 32 22 24 26 28 28 22 16 6 12 20 27 40 44
44 38 38 39 39 40 38 38 43 43 45 43 44 45 45 40 39 41 42 44 43 35 34 35 29 20 18 21 23 22 15 9 10 18 24 31 33 48
36 33 37 36 37 37 37 40 40 42 43 42 42 42 39 36 37 37 38 40 41 33 31 29 26 18 12 14 17 16 13 8 10 18 27 26 37 48
30 33 35 36 36 37 37 38 39 40 41 42 42 38 35 32 34 36 36 36 39 31 28 25 22 17 11 7 12 13 9 8 24 25 36 42 37 42
31 34 36 35 35 35 36 38 39 39 40 42 40 36 33 31 32 32 32 32 35 29 24 22 19 16 10 2 5 5 6 3 14 27 22 34 45 50
32 36 33 33 34 36 37 39 39 39 40 40 40 38 32 30 31 30 29 29 31 29 21 20 16 14 10 3 6 2 3 1 6 16 25 31 39 45
35 33 34 35 36 38 40 40 39 40 41 40 37 36 32 31 30 29 30 29 26 26 20 18 14 12 11 6 6 11 6 5 8 15 19 25 36 34
34 35 36 37 40 41 41 40 41 41 41 37 37 36 32 31 30 28 26 27 27 25 21 19 13 9 10 10 9 13 16 11 6 12 23 29 40 37
Wind_Direction
283 289 286 290 295 296 301 300 299 303 308 310 313 313 312 316 313 312 311 316 321 322 320 316 315 314 315 312 309 307 304 298 293 284 277 268 262 253
283 286 287 288 294 293 298 300 302 306 309 310 314 313 314 314 313 314 319 322 325 322 320 318 318 317 315 312 310 306 302 298 296 290 280 263 256 248
282 285 290 289 292 292 298 301 304 307 309 311 312 311 313 313 313 318 322 327 326 323 319 321 319 318 316 314 310 305 301 300 294 290 282 259 246 241
283 287 285 292 290 293 297 301 303 307 308 311 310 312 314 314 317 322 326 328 326 323 323 323 319 319 318 316 311 310 306 303 299 293 278 256 235 232
281 284 284 291 289 291 298 300 303 306 308 309 308 311 312 314 321 326 328 330 327 324 327 322 321 320 321 318 319 317 315 314 312 298 283 248 226 226
287 282 288 287 280 284 296 298 303 306 307 308 311 311 314 318 325 329 332 331 327 325 328 319 324 324 325 326 325 328 323 320 324 316 289 236 221 220
290 282 289 282 280 292 294 297 301 305 306 310 310 314 317 321 328 333 334 333 328 328 328 321 327 329 329 327 324 323 318 326 324 323 304 246 217 215
295 288 285 281 293 288 293 298 297 303 307 309 315 316 318 325 333 335 335 331 327 328 330 327 331 332 338 337 335 332 326 320 307 300 294 261 222 220
286 289 286 284 291 290 294 297 300 301 305 311 315 316 323 331 336 338 336 332 330 331 333 330 337 332 335 338 336 332 325 316 305 294 278 246 229 231
283 287 280 281 294 287 292 296 298 302 307 314 314 319 326 334 338 338 337 334 332 332 334 333 338 330 333 336 338 335 336 327 315 298 275 251 241 223
290 286 282 282 288 285 288 294 300 304 311 314 317 323 330 335 339 338 339 335 333 331 334 332 336 330 333 340 340 338 344 345 334 326 277 239 220 184
287 288 281 283 286 284 290 296 303 310 314 317 321 326 332 337 338 339 339 336 335 332 332 332 331 334 338 345 351 348 353 345 339 335 278 202 180 163
286 290 288 287 283 285 289 297 308 313 315 318 324 330 334 338 338 340 340 338 336 333 335 335 332 332 341 354 353 350 352 347 339 315 227 185 163 160
291 290 287 282 279 285 293 302 310 312 314 320 326 330 336 337 337 339 340 339 337 332 335 335 333 332 340 351 353 350 355 5 345 326 185 165 163 159
285 286 278 270 277 287 295 303 308 311 315 322 326 331 336 335 336 339 340 339 337 332 335 335 337 332 341 353 356 354 360 7 8 35 146 155 163 169
282 277 269 270 277 288 294 303 308 310 314 322 327 331 333 331 337 339 339 340 336 331 333 332 340 335 344 358 356 356 1 7 104 100 139 164 156 146
273 268 269 274 281 290 297 305 306 307 315 322 327 328 330 331 335 338 338 339 337 329 332 327 341 337 340 1 1 360 4 27 110 120 157 156 133 146
261 268 273 279 287 292 299 302 304 310 315 321 323 325 327 330 331 334 336 339 337 331 331 325 338 343 336 358 2 360 15 78 160 154 157 154 144 144
262 266 275 282 288 294 298 303 306 309 315 319 319 321 323 323 327 329 334 338 336 330 328 324 335 345 331 7 9 5 7 63 123 160 167 161 151 149
263 271 278 286 294 298 300 302 305 309 313 316 315 317 316 318 321 326 331 336 333 327 322 327 328 346 330 100 43 19 9 72 129 137 164 171 161 158
270 276 284 293 297 297 299 301 303 307 310 311 312 312 309 313 316 321 327 331 331 324 312 327 322 333 337 290 166 132 98 148 170 153 153 158 155 166
275 284 291 294 295 296 296 297 302 304 307 305 304 305 305 309 312 316 321 324 325 320 305 309 320 322 324 293 212 187 190 148 176 190 178 167 167 172
282 285 287 289 289 289 291 295 298 301 300 296 298 298 300 305 305 309 313 318 317 316 300 289 308 312 292 286 249 200 194 189 167 175 188 194 171 172
Height
5738 5736 5734 5732 5729 5725 5721 5717 5713 5708 5704 5696 5689 5680 5671 5662 5652 5641 5630 5614 5597 5579 5561 5544 5528 5513 5499 5488 5479 5470 5462 5454 5448 5443 5440 5440 5444 5450
5727 5725 5722 5720 5718 5714 5710 5706 5701 5696 5690 5684 5676 5668 5658 5649 5638 5627 5615 5596 5579 5560 5541 5525 5509 5495 5483 5474 5465 5454 5443 5433 5425 5419 5416 5418 5426 5433
5715 5713 5711 5709 5706 5702 5698 5693 5688 5683 5678 5672 5663 5655 5646 5637 5626 5613 5597 5579 5562 5542 5524 5509 5490 5479 5470 5460 5448 5435 5423 5414 5407 5400 5398 5398 5408 5417
5704 5703 5699 5696 5693 5690 5687 5681 5676 5671 5666 5660 5651 5643 5635 5625 5613 5600 5581 5562 5544 5525 5509 5492 5475 5463 5455 5443 5430 5418 5408 5399 5390 5383 5380 5382 5391 5402
5694 5690 5688 5684 5681 5678 5674 5669 5664 5659 5655 5649 5641 5632 5623 5612 5601 5585 5567 5548 5527 5508 5496 5476 5465 5452 5441 5428 5415 5406 5398 5389 5380 5372 5368 5371 5380 5391
5681 5678 5676 5673 5669 5666 5663 5658 5653 5648 5643 5637 5629 5621 5611 5600 5587 5573 5555 5534 5518 5499 5487 5466 5458 5443 5431 5418 5409 5402 5394 5385 5376 5369 5366 5368 5376 5384
5668 5667 5664 5660 5657 5654 5650 5646 5642 5638 5632 5625 5618 5609 5600 5588 5574 5558 5542 5525 5508 5493 5482 5460 5453 5438 5425 5415 5406 5398 5391 5384 5377 5372 5368 5368 5373 5381
5655 5655 5652 5648 5644 5642 5639 5635 5631 5626 5621 5614 5606 5598 5587 5575 5558 5543 5527 5513 5505 5490 5475 5457 5446 5433 5423 5412 5403 5395 5389 5382 5377 5374 5371 5371 5373 5378
5647 5642 5639 5635 5632 5630 5626 5622 5619 5615 5609 5603 5595 5586 5574 5561 5547 5532 5515 5501 5486 5477 5468 5454 5444 5430 5420 5409 5400 5393 5384 5377 5373 5370 5369 5370 5372 5374
5633 5630 5626 5623 5619 5617 5614 5610 5606 5602 5598 5592 5584 5573 5562 5549 5535 5521 5508 5496 5479 5466 5459 5451 5441 5427 5418 5407 5398 5389 5381 5373 5368 5365 5365 5366 5367 5370
5620 5616 5613 5611 5607 5604 5600 5596 5594 5590 5586 5580 5572 5561 5551 5537 5525 5513 5500 5490 5480 5465 5457 5447 5440 5429 5415 5404 5396 5388 5381 5372 5366 5363 5362 5363 5364 5369
5605 5603 5601 5599 5595 5592 5588 5586 5583 5580 5576 5570 5560 5550 5540 5527 5514 5503 5493 5484 5473 5467 5456 5446 5436 5430 5422 5406 5397 5389 5382 5374 5369 5365 5364 5364 5366 5372
5592 5589 5588 5586 5584 5581 5578 5575 5573 5570 5567 5560 5550 5541 5530 5517 5506 5494 5485 5480 5470 5458 5451 5444 5436 5428 5417 5408 5398 5391 5384 5378 5373 5370 5368 5367 5370 5377
5579 5577 5575 5573 5572 5570 5568 5566 5563 5561 5556 5549 5541 5532 5522 5510 5499 5490 5480 5474 5466 5457 5450 5443 5434 5429 5420 5410 5402 5394 5387 5381 5378 5374 5373 5373 5377 5384
5567 5564 5562 5560 5560 5559 5557 5555 5553 5551 5545 5538 5530 5522 5515 5507 5494 5485 5475 5467 5462 5455 5448 5442 5434 5428 5422 5413 5403 5397 5390 5385 5381 5378 5378 5382 5384 5390
5553 5550 5549 5549 5549 5548 5547 5544 5542 5539 5534 5527 5521 5514 5507 5499 5489 5483 5475 5467 5459 5453 5449 5442 5434 5428 5425 5417 5409 5403 5397 5391 5387 5387 5388 5390 5396 5404
5539 5537 5538 5537 5537 5536 5535 5533 5531 5527 5523 5517 5511 5506 5500 5490 5485 5479 5473 5465 5459 5454 5449 5442 5437 5428 5427 5423 5415 5410 5406 5403 5397 5400 5402 5405 5412 5419
5525 5526 5528 5526 5525 5525 5523 5522 5519 5516 5511 5507 5503 5498 5491 5484 5480 5475 5470 5462 5457 5453 5448 5442 5437 5430 5429 5427 5421 5417 5415 5415 5411 5412 5414 5416 5423 5433
5514 5515 5516 5515 5513 5513 5512 5511 5508 5505 5501 5497 5495 5489 5483 5478 5475 5471 5466 5458 5455 5453 5449 5443 5437 5433 5430 5430 5427 5423 5422 5422 5420 5420 5423 5423 5430 5440
5504 5505 5505 5504 5503 5502 5501 5500 5498 5494 5491 5488 5486 5480 5475 5471 5468 5465 5461 5454 5452 5450 5448 5444 5437 5434 5432 5434 5433 5429 5426 5429 5429 5429 5432 5432 5434 5441
5494 5494 5494 5493 5492 5491 5490 5489 5486 5483 5479 5477 5475 5472 5467 5464 5462 5459 5456 5451 5449 5448 5447 5444 5437 5435 5434 5434 5437 5436 5433 5432 5432 5437 5440 5443 5445 5451
5483 5482 5481 5480 5480 5479 5478 5476 5473 5471 5468 5466 5464 5462 5459 5456 5455 5453 5452 5448 5444 5444 5444 5443 5439 5434 5435 5435 5436 5439 5439 5439 5442 5444 5447 5450 5455 5459
5469 5468 5467 5467 5467 5466 5464 5461 5459 5458 5457 5455 5453 5451 5449 5448 5447 5445 5444 5442 5441 5440 5440 5440 5437 5435 5434 5434 5434 5437 5440 5442 5442 5446 5448 5450 5453 5460